Taunton, MA

11:01 PM EDT on September 20, 2019 (GMT -0400)
Taunton Municipal

Weather History for KTAN - August, 2019

Change the Weather History Date:

Saturday, August 24, 2019

  Actual Average Record
Temperature  
Mean Temperature 62 °F -  
Max Temperature 75 °F 79 °F 90 °F (1974)
Min Temperature 50 °F 55 °F 40 °F (1957)
Degree Days  
Heating Degree Days 2    
Growing Degree Days 12 (Base 50)    
Moisture  
Dew Point 52 °F    
Average Humidity 70    
Maximum Humidity 93    
Minimum Humidity 45    
Precipitation  
Precipitation 0.00 in - - ()
Sea Level Pressure  
Sea Level Pressure 30.16 in    
Wind  
Wind Speed 2 mph (NNE)    
Max Wind Speed 9 mph    
Max Gust Speed 16 mph    
Visibility 10 miles    
Events      
Averages and records for this station are not official NWS values.
T = Trace of Precipitation, MM = Missing Value Source: NWS Daily Summary

Daily Weather History Graph

Daily Weather History Graph

Search for Another Location

Airport or City:

Astronomy

Aug. 24, 2019 Rise Set
Actual Time 6:01 AM EDT 7:30 PM EDT
Civil Twilight 5:32 AM EDT 8:00 PM EDT
Nautical Twilight 4:56 AM EDT 8:35 PM EDT
Astronomical Twilight 4:19 AM EDT 9:12 PM EDT
Moon No Moon Rise 2:45 PM EDT (8/24)
Length of Visible Light 14h 28m
Length of Day
13h 29m
Last Quarter, 39% of the Moon is Illuminated
Aug 24
Last Quarter
Aug 30
New
Sep 5
First Quarter
Sep 14
Full
Sep 21
Last Quarter

Hourly Weather History & Observations

Time (EDT) Temp. Dew Point Humidity Pressure Visibility Wind Dir Wind Speed Gust Speed Precip Events Conditions
12:52 AM 55.0 °F 53.1 °F 93% 30.05 in 10.0 mi Calm Calm - N/A   Clear
1:52 AM 54.0 °F 51.1 °F 90% 30.05 in 10.0 mi Calm Calm - N/A   Clear
2:52 AM 53.1 °F 48.9 °F 86% 30.06 in 10.0 mi Calm Calm - N/A   Clear
3:52 AM 53.1 °F 48.9 °F 86% 30.06 in 10.0 mi Calm Calm - N/A   Clear
4:52 AM 52.0 °F 48.9 °F 89% 30.08 in 10.0 mi Calm Calm - N/A   Clear
5:52 AM 50.0 °F 46.9 °F 89% 30.09 in 8.0 mi Calm Calm - N/A   Clear
6:52 AM 53.1 °F 50.0 °F 89% 30.11 in 10.0 mi Calm Calm - N/A   Clear
7:52 AM 62.1 °F 53.1 °F 72% 30.13 in 10.0 mi NNW 3.5 mph - N/A   Clear
8:52 AM 66.9 °F 52.0 °F 59% 30.13 in 10.0 mi North 5.8 mph - N/A   Clear
9:52 AM 70.0 °F 52.0 °F 53% 30.14 in 10.0 mi Variable 4.6 mph - N/A   Clear
10:52 AM 73.0 °F 51.1 °F 46% 30.15 in 10.0 mi North 9.2 mph - N/A   Clear
11:52 AM 75.9 °F 53.1 °F 45% 30.14 in 10.0 mi Variable 6.9 mph - N/A   Scattered Clouds
12:52 PM 75.0 °F 54.0 °F 48% 30.15 in 10.0 mi North - - N/A   Partly Cloudy
1:52 PM 73.9 °F 54.0 °F 50% 30.16 in 10.0 mi Variable 5.8 mph - N/A   Scattered Clouds
2:52 PM 75.0 °F 55.0 °F 50% 30.17 in 10.0 mi ENE 8.1 mph 16.1 mph N/A   Partly Cloudy
3:52 PM 73.9 °F 55.0 °F 52% 30.17 in 10.0 mi North - - N/A   Mostly Cloudy
4:52 PM 73.0 °F 55.0 °F 53% 30.18 in 10.0 mi Variable 5.8 mph - N/A   Partly Cloudy
5:52 PM 71.1 °F 54.0 °F 55% 30.20 in 10.0 mi ENE 8.1 mph - N/A   Partly Cloudy
6:52 PM 69.1 °F 54.0 °F 58% 30.22 in 10.0 mi Variable 4.6 mph - N/A   Clear
7:52 PM 64.9 °F 55.9 °F 73% 30.24 in 10.0 mi Variable 3.5 mph - N/A   Partly Cloudy
8:52 PM 62.1 °F 55.9 °F 80% 30.26 in 10.0 mi Calm Calm - N/A   Clear
9:52 PM 57.0 °F 54.0 °F 89% 30.27 in 10.0 mi Calm Calm - N/A   Clear
10:52 PM 55.0 °F 52.0 °F 89% 30.28 in 10.0 mi Calm Calm - N/A   Clear
11:52 PM 54.0 °F 51.1 °F 90% 30.28 in 5.0 mi Calm Calm - N/A   Clear